[[{"header":{"parameterUnit":"m.s-1","parameterCategory":1,"la1":30.2991,"la2":30.254,"lo1":-89.0895,"lo2":-89.0444,"dy":0.0017,"dx":0.0017,"nx":28,"ny":28,"refTime":"2025-06-05T21:00:00:Z","depth":0,"parameterNumber":2,"parameterNumberName":"U-component_of_WINDS"},"data":[0,0,0,0,0,0,0,0,0,0,0,0,0,0,0,0,0,0,0,0,0,0,0,0,0,0,0,0,0,0,0,0,0,0,0,0,0,0,0,0,0,0,0,0,0,0,0,0,0,0,0,0,0,0,0,0,0,0,1.9959,1.996,0,2.0073,2.0074,2.0076,2.0034,2.0032,2.0029,2.0026,2.0147,2.0153,2.0158,0,0,0,0,0,0,0,0,0,0,0,0,0,1.9709,1.9714,1.9959,1.996,1.9962,2.0073,2.0074,2.0076,2.0035,2.0031,2.0028,2.0025,2.0145,2.0152,2.0159,0,0,0,0,0,0,0,0,0,0,0,0,0,1.982,1.9716,1.9959,1.9954,1.9955,2.0072,2.0074,2.0076,2.0035,2.0031,2.0027,2.0024,2.0143,2.0151,2.016,2.0289,0,0,2.0185,2.0189,0,0,0,0,0,0,0,0,1.9814,1.9829,1.9954,1.9955,1.9956,2.0035,2.0031,2.0148,2.0036,2.0005,2.0026,2.0022,2.0113,2.0124,2.0154,2.0295,2.03,2.0186,2.0191,2.0195,2.0197,0,0,0,0,0,0,0,1.9806,1.9824,2.0004,1.9955,1.9957,1.9948,1.996,2.0053,2.008,2.0007,2.0005,2.0018,2.0113,2.0146,2.0156,2.0302,2.0186,2.0193,2.0199,2.0202,2.0556,2.0561,0,0,0,0,0,0,1.9798,1.9818,2.0,2.0007,1.9874,1.9956,1.9969,2.0014,2.0078,2.0084,2.0022,2.0016,2.0133,2.0147,2.0161,2.0318,2.0195,2.0203,2.0207,2.0552,2.0557,2.0562,0,0,0,0,0,0,1.9792,1.9814,1.9996,1.9912,1.9935,1.9964,2.0015,2.0018,2.0051,2.0089,2.0094,2.005,2.0131,2.0149,2.0258,2.0321,2.0206,2.0214,2.0547,2.0554,2.056,2.0632,0,0,0,0,0,0,1.9785,1.9813,1.9861,1.9913,1.9939,2.009,2.0019,2.0023,2.0065,2.0059,2.0117,2.0123,2.0129,2.0245,2.0266,2.0331,2.0221,2.0541,2.055,2.0558,2.0625,2.0641,2.0654,0,0,0,0,0,1.9777,1.9877,1.9864,1.9886,2.0,2.0094,2.0108,2.0113,2.007,2.012,2.0145,2.0121,2.0311,2.0257,2.028,2.0348,2.0537,2.0547,2.0557,2.0618,2.0637,2.0654,0,0,0,0,0,0,1.9833,1.9884,1.9869,1.999,2.0038,2.0086,2.0149,2.0133,2.0195,2.0186,2.019,2.0204,2.0316,2.0343,2.0282,2.0478,2.0418,2.0433,2.0456,2.0475,2.049,2.0482,2.0228,0,0,0,0,0,1.9859,1.9929,1.9971,2.0073,2.0098,2.0119,2.016,2.0159,2.0209,2.023,2.0262,2.0313,2.0384,2.0431,2.0498,2.0628,2.0641,2.0686,2.0701,2.0713,2.0727,2.0799,2.082,2.0594,2.0594,2.0594,0,0,1.9914,1.9951,1.9995,2.0085,2.0122,2.0196,2.0137,2.0217,2.0273,2.0242,2.0347,2.0373,2.043,2.055,2.0605,2.0576,2.0792,2.0726,2.0735,2.0742,2.0811,2.0833,2.0852,2.0601,2.06,2.0599,0,0,2.0053,2.0087,2.0176,2.0215,2.0271,2.0285,2.0306,2.0358,2.0374,2.0479,2.0458,2.0525,2.0647,2.0688,2.0726,2.0881,2.0863,2.0903,2.0982,2.1053,2.1071,2.1086,2.1144,2.1164,2.0916,2.0916,2.0917,0,2.0114,2.0224,2.0225,2.0308,2.0349,2.0323,2.0416,2.0453,2.0529,2.0559,2.0525,2.0678,2.0714,2.0845,2.0883,2.0913,2.094,2.0897,2.1068,2.1084,2.1098,2.1153,2.1175,2.0921,2.0921,2.092,2.092,0,2.0298,2.0375,2.0441,2.0514,2.0563,2.065,2.0665,2.0715,2.071,2.0728,2.0836,2.0879,2.0955,2.0986,2.0982,2.1117,2.1097,2.1066,2.1006,2.1125,2.1176,2.1197,2.0928,2.0926,2.0925,2.0924,0,0,2.0475,2.0548,2.0573,2.0606,2.0667,2.0727,2.0814,2.0887,2.0931,2.0984,2.1058,2.1162,2.1134,2.1176,2.1177,2.1239,2.1362,2.12,2.1201,2.123,2.1515,2.1539,2.1563,2.1349,2.1353,2.1356,2.1511,0,2.062,2.0771,2.0775,2.0914,2.0986,2.0963,2.1039,2.1085,2.1105,2.117,2.1192,2.1266,2.1222,2.1248,2.1308,2.1334,2.1419,2.1323,2.142,2.1423,2.1408,2.159,2.1616,2.176,2.1531,2.1534,2.1536,0,2.0809,2.0868,2.1014,2.1066,2.1096,2.1164,2.1233,2.1294,2.1347,2.1357,2.1405,2.1397,2.1488,2.1424,2.155,2.1484,2.1524,2.1543,2.1549,2.156,2.1488,2.1607,2.1805,2.1828,2.1568,2.1565,2.1563,0,2.0925,2.1041,2.1144,2.1173,2.1236,2.1284,2.1313,2.1362,2.1406,2.1467,2.1496,2.1567,2.1606,2.1662,2.1674,2.1626,2.1801,2.1737,2.1813,2.1813,2.1852,2.185,2.2061,2.1875,2.1875,2.1875,2.1874,0,2.1087,2.1178,2.1198,2.1261,2.1363,2.1367,2.1468,2.1493,2.1537,2.1606,2.1591,2.1656,2.1667,2.1736,2.1746,2.185,2.1867,2.1879,2.1881,2.1882,2.1881,2.1909,2.19,2.188,2.1879,2.1878,2.1877,0,2.1235,2.1251,2.1362,2.1412,2.1427,2.15,2.1544,2.1605,2.1623,2.1711,2.1732,2.1761,2.1841,2.1858,2.1953,2.196,2.2084,2.2075,2.2066,2.2066,2.2141,2.2135,2.238,2.2413,2.2204,2.2206,2.2208,0,2.1338,2.1407,2.1464,2.1509,2.154,2.1612,2.1658,2.1665,2.1713,2.178,2.1834,2.1912,2.1975,2.2105,2.2135,2.2208,2.2202,2.2283,2.2213,2.2212,2.2206,2.2202,2.221,2.2297,2.2299,2.2301,2.2303,0,2.1519,2.1524,2.1589,2.1659,2.1713,2.1768,2.182,2.1858,2.1873,2.1929,2.201,2.2059,2.2156,2.2235,2.2308,2.2339,2.2325,2.2324,2.2346,2.2348,2.2341,2.2347,2.2104,2.2319,2.2317,2.2316,2.2315,2.2315,2.1649,2.171,2.176,2.1834,2.1874,2.1924,2.1985,2.201,2.2078,2.2157,2.2157,2.2247,2.23,2.2397,2.2433,2.2504,2.2479,2.251,2.2518,2.2526,2.2534,2.2328,2.2517,2.2517,2.2516,2.2516,2.2516,0,2.183,2.1862,2.193,2.2003,2.2062,2.2042,2.2099,2.215,2.2229,2.2279,2.2341,2.2436,2.2513,2.2549,2.2625,2.2676,2.2671,2.2696,2.2693,2.2701,2.2551,2.2525,2.2698,2.2698,2.2698,2.2698,2.2698,2.2698,2.1932,2.2035,2.2046,2.217,2.2201,2.2288,2.2323,2.2369,2.2409,2.2515,2.2579,2.2601,2.2647,2.2726,2.2797,2.2805,2.2835,2.2864,2.287,2.2729,2.2711,2.2693,2.2669,2.287,2.287,2.3014,2.3015,2.3016]},{"header":{"parameterUnit":"m.s-1","parameterCategory":1,"la1":30.2991,"la2":30.254,"lo1":-89.0895,"lo2":-89.0444,"dy":0.0017,"dx":0.0017,"nx":28,"ny":28,"refTime":"2025-06-05T21:00:00:Z","depth":0,"parameterNumber":3,"parameterNumberName":"V-component_of_WINDS"},"data":[0,0,0,0,0,0,0,0,0,0,0,0,0,0,0,0,0,0,0,0,0,0,0,0,0,0,0,0,0,0,0,0,0,0,0,0,0,0,0,0,0,0,0,0,0,0,0,0,0,0,0,0,0,0,0,0,0,0,4.1912,4.1914,0,4.2138,4.2141,4.2144,4.2153,4.215,4.2147,4.2145,4.2375,4.2383,4.2391,0,0,0,0,0,0,0,0,0,0,0,0,0,4.1485,4.1493,4.1912,4.1915,4.1918,4.2138,4.2141,4.2144,4.2153,4.215,4.2147,4.2144,4.2372,4.2382,4.2392,0,0,0,0,0,0,0,0,0,0,0,0,0,4.1687,4.1495,4.1911,4.1949,4.1954,4.2137,4.2141,4.2145,4.2154,4.215,4.2146,4.2142,4.2368,4.2381,4.2394,4.2554,0,0,4.2433,4.2439,0,0,0,0,0,0,0,0,4.1675,4.1702,4.194,4.1946,4.1953,4.2113,4.2075,4.2282,4.2155,4.2078,4.2145,4.214,4.2291,4.231,4.2361,4.2565,4.2575,4.2434,4.2442,4.2448,4.2451,0,0,0,0,0,0,0,4.1661,4.1693,4.2001,4.1944,4.1952,4.1953,4.1978,4.2114,4.2204,4.2084,4.2086,4.2112,4.2293,4.2349,4.2366,4.2578,4.2434,4.2445,4.2453,4.2458,4.2926,4.293,0,0,0,0,0,0,4.164,4.1681,4.1994,4.2008,4.1801,4.1964,4.1991,4.2066,4.2203,4.222,4.2116,4.2112,4.2328,4.2351,4.2375,4.2573,4.2448,4.246,4.2467,4.2921,4.2927,4.2932,0,0,0,0,0,0,4.1631,4.1668,4.1985,4.1845,4.1886,4.1976,4.2059,4.2072,4.2128,4.2226,4.2242,4.2156,4.2326,4.2356,4.251,4.2581,4.2466,4.2477,4.2916,4.2923,4.293,4.297,0,0,0,0,0,0,4.1619,4.1665,4.1727,4.1846,4.1893,4.2118,4.2064,4.208,4.215,4.2148,4.2268,4.2284,4.2325,4.2491,4.2523,4.2597,4.2487,4.291,4.2919,4.2927,4.2963,4.2978,4.299,0,0,0,0,0,4.1604,4.1729,4.1731,4.1768,4.1973,4.2122,4.2148,4.2194,4.2156,4.2219,4.2283,4.228,4.2567,4.2506,4.2543,4.2622,4.2906,4.2917,4.2927,4.2957,4.2975,4.299,0,0,0,0,0,0,4.1615,4.1745,4.1748,4.1916,4.2008,4.2123,4.2204,4.2211,4.2315,4.2308,4.2359,4.2386,4.2539,4.2595,4.2524,4.2784,4.2732,4.275,4.2743,4.2761,4.2774,4.2758,4.2498,0,0,0,0,0,4.1637,4.1748,4.1855,4.1993,4.2039,4.2113,4.218,4.2207,4.2303,4.2342,4.2417,4.251,4.2621,4.2693,4.2801,4.297,4.2997,4.3042,4.3056,4.3067,4.3083,4.3177,4.3199,4.2967,4.2966,4.2966,0,0,4.1684,4.1769,4.1836,4.1997,4.2072,4.2184,4.2146,4.2267,4.2351,4.236,4.2511,4.2568,4.2675,4.2838,4.2913,4.2889,4.3152,4.308,4.3088,4.3098,4.319,4.3212,4.3232,4.2974,4.2972,4.2971,0,0,4.1828,4.1903,4.2027,4.2102,4.2215,4.2264,4.2293,4.2408,4.2447,4.2598,4.2608,4.2708,4.2898,4.2975,4.3039,4.3211,4.3213,4.3244,4.3317,4.3408,4.3427,4.3443,4.3506,4.3528,4.3259,4.3259,4.3259,0,4.1872,4.2044,4.2089,4.2211,4.2282,4.2296,4.2421,4.2491,4.2633,4.2682,4.2653,4.2894,4.2966,4.3148,4.319,4.324,4.3276,4.3232,4.342,4.3437,4.3453,4.3514,4.3538,4.3262,4.3262,4.3262,4.3261,0,4.2093,4.2212,4.2298,4.2436,4.2516,4.2639,4.2703,4.2778,4.2798,4.2849,4.3004,4.3092,4.3218,4.3262,4.3282,4.3447,4.3429,4.341,4.3359,4.3478,4.3536,4.356,4.3267,4.3266,4.3265,4.3264,0,0,4.2253,4.2414,4.2445,4.2509,4.2634,4.2726,4.2849,4.2973,4.3038,4.3135,4.324,4.34,4.3384,4.3456,4.3484,4.3564,4.3697,4.3536,4.3539,4.3564,4.3885,4.3901,4.3927,4.3698,4.3703,4.3706,4.3877,0,4.2412,4.2633,4.2677,4.2868,4.2979,4.2993,4.31,4.3188,4.3239,4.334,4.3395,4.3509,4.3478,4.3522,4.3601,4.3664,4.3762,4.3652,4.3797,4.3802,4.3772,4.3957,4.3974,4.4131,4.39,4.3903,4.3906,0,4.2628,4.2732,4.2934,4.3046,4.3094,4.3189,4.3307,4.3403,4.3503,4.3534,4.3615,4.3634,4.3762,4.3703,4.3881,4.3804,4.3866,4.3905,4.3913,4.393,4.3863,4.3981,4.4182,4.4206,4.3942,4.3939,4.3937,0,4.2727,4.2916,4.3063,4.3116,4.3249,4.3316,4.3374,4.347,4.3542,4.3644,4.3692,4.3807,4.3871,4.3959,4.4009,4.3961,4.4183,4.4128,4.4214,4.4213,4.4262,4.4259,4.4477,4.4297,4.4297,4.4296,4.4296,0,4.2902,4.3026,4.3109,4.3199,4.3338,4.3387,4.3523,4.358,4.3665,4.3767,4.3784,4.3879,4.3938,4.404,4.4079,4.4221,4.4249,4.4278,4.4288,4.4279,4.4275,4.4322,4.4313,4.4303,4.4301,4.43,4.4299,0,4.3037,4.3097,4.3258,4.3371,4.3402,4.35,4.3596,4.3683,4.3734,4.3862,4.3894,4.3974,4.4096,4.4153,4.4304,4.433,4.4492,4.4492,4.4459,4.4463,4.4546,4.4538,4.4804,4.4842,4.4635,4.4636,4.4638,0,4.3146,4.3242,4.3365,4.3434,4.3495,4.3606,4.368,4.3731,4.3807,4.3928,4.4001,4.4123,4.4225,4.4418,4.4489,4.4604,4.461,4.4695,4.4627,4.4615,4.4614,4.4608,4.4619,4.4708,4.471,4.4711,4.4713,0,4.3333,4.3358,4.3465,4.3582,4.367,4.3765,4.3857,4.3913,4.3978,4.4063,4.4188,4.4266,4.442,4.4542,4.4662,4.4721,4.4729,4.4733,4.4759,4.4752,4.473,4.4745,4.4494,4.4727,4.4726,4.4725,4.4724,4.4723,4.346,4.3547,4.3647,4.3765,4.384,4.3927,4.4015,4.4077,4.4183,4.4313,4.4335,4.4469,4.4566,4.4728,4.4791,4.4896,4.4877,4.4914,4.4924,4.4933,4.4939,4.471,4.4918,4.4917,4.4917,4.4917,4.4916,0,4.3651,4.3716,4.3824,4.3954,4.4047,4.4045,4.4147,4.4225,4.4343,4.4433,4.4532,4.4676,4.4794,4.4874,4.4993,4.5062,4.5068,4.5092,4.5089,4.5102,4.4949,4.4915,4.5085,4.5085,4.5085,4.5085,4.5085,4.5085,4.3761,4.3908,4.3945,4.4129,4.4193,4.4325,4.4383,4.4463,4.4535,4.4696,4.4795,4.4846,4.4932,4.5058,4.5166,4.5186,4.523,4.5255,4.5275,4.513,4.5113,4.5096,4.5065,4.5263,4.5264,4.542,4.5422,4.5423]}]]